Regional Weather Roundup
Issued by NWS

Home | Current Version | Previous Version | Text Only | Print | Product List | Glossary Off
Versions: 1 2 3 4 5 6 7 8 9 10 11 12 13 14 15 16 17 18 19 20 21 22 23 24 25 26 27 28 29 30 31 32 33 34 35 36 37 38 39 40 41 42 43 44 45 46 47 48 49 50

000
ASUS45 KBOU 261207
RWRCO

WEATHER ROUNDUP FOR COLORADO
NATIONAL WEATHER SERVICE DENVER/BOULDER CO
600 AM MDT WED APR 26 2017

NOTE: "FAIR" INDICATES FEW OR NO CLOUDS BELOW 12000 FEET WITH NO
SIGNIFICANT WEATHER AND/OR OBSTRUCTIONS TO VISIBILITY.

COZ001>005-013-030-031-261300-
...NORTHWEST COLORADO...

CITY           SKY/WX    TMP DP  RH WIND       PRES   REMARKS
CRAIG          CLOUDY    33  28  81 NE3       29.91S
HAYDEN         CLOUDY    30  25  80 E5        29.90F WCI  25
MEEKER         CLOUDY    34  33  96 CALM      29.91S
MOUNT WERNER   NOT AVBL
STEAMBOAT SPGS CLOUDY    30  28  92 NE3       29.90F
WALDEN           N/A     21  18  86 SE6       29.89F WCI  14
$$

COZ006>008-011-261300-
...WEST CENTRAL VALLEYS...

CITY           SKY/WX    TMP DP  RH WIND       PRES   REMARKS
GRAND JUNCTION MOCLDY    36  35  96 CALM      29.91S
MONTROSE       CLOUDY    36  33  89 CALM      29.94S
EAGLE          MOCLDY    28  27  96 SE3       29.94S
RIFLE          CLOUDY    35  32  88 CALM      29.92S
DELTA          FAIR      34  31  90 N5        29.94R WCI  30
NUCLA          FAIR      32  30  93 E6        29.97R WCI  26
$$

COZ017>023-064>068-261300-
...SOUTHWEST COLORADO...

CITY           SKY/WX    TMP DP  RH WIND       PRES   REMARKS
DURANGO        FAIR      26  18  71 NE6       29.88R WCI  19
CORTEZ         FAIR      28  24  85 CALM      29.92S
PAGOSA SPRINGS FAIR      26  25  94 CALM      29.89R
TELLURIDE      FAIR      27  25  91 CALM      29.94F
WOLF CREEK PAS FAIR      16  10  79 CALM      29.97R
$$

COZ009-010-012-014-032>034-037-058>063-261300-
...CENTRAL COLORADO...

CITY           SKY/WX    TMP DP  RH WIND       PRES   REMARKS
ASPEN          CLOUDY    31  27  85 N5        29.91S WCI  26
BUENA VISTA    FAIR      32  17  55 W9        29.86R WCI  24
COPPER MTN     CLOUDY    19  14  79 MISG      29.89S
BERTHOUD PASS  CLOUDY    10   0  61 NW35G44   29.82R WCI -13
COTTONWOOD PAS FAIR      30  16  55 W9G22     29.86S WCI  22
GUNNISON       FAIR      29  25  85 CALM      29.90S
KREMMLING      CLOUDY    34  27  75 CALM      29.91S
LEADVILLE      FAIR      21  16  81 NW10      29.87R WCI  10
MONARCH PASS   CLOUDY    18  14  86 W18G24    29.98S WCI   2
SALIDA         FAIR      34  21  57 NW8       29.92S WCI  28
SUNLIGHT       CLOUDY   N/A N/A N/A W5        29.96F
WILKERSON PASS FAIR      18  12  79 NW8       29.88R WCI   7
$$

COZ069>075-261300-
...SAN LUIS VALLEY/SANGRE DE CRISTO MOUNTAINS...

CITY           SKY/WX    TMP DP  RH WIND       PRES   REMARKS
ALAMOSA        FAIR      27  22  81 N7        29.85R WCI  19
LA VETA PASS   FAIR      23  21  93 SW15      29.94R WCI  10
SAGUACHE       MOCLDY    34  19  55 N13G22    29.86S WCI  25
$$

COZ035-036-038>040-261300-
...NORTHERN COLORADO FRONT RANGE...

CITY           SKY/WX    TMP DP  RH WIND       PRES   REMARKS
DENVER INTL AP FAIR      27  23  85 S7        29.83S WCI  19
DMNS CITY PARK   N/A     31  26  81 SE8       29.84S WCI  24
AURORA         PTCLDY    27  27  99 S7        29.84R WCI  19
FRONT RANGE AP FAIR      30  28  93 SW6       29.84S WCI  24
ERIE MUNI ARPT FAIR      30  27  87 CALM      29.84S
BOULDER MUN AP FAIR      32  28  86 E3        29.83S
CENTENNIAL     FAIR      28  25  88 S6        29.83R WCI  22
BROOMFIELD     FAIR      30  28  93 SE3       29.84R
FORT COLLINS   FAIR      27  25  92 S8        29.83F WCI  19
LONGMONT       FAIR      32  27  82 SE3       29.86S HAZE
$$

COZ041-046-047-076>085-087-088-261300-
...PIKES PEAK/PALMER DIVIDE AND SOUTHERN FOOTHILLS...

CITY           SKY/WX    TMP DP  RH WIND       PRES   REMARKS
COLO. SPRINGS  FAIR      32  26  78 N6        29.82R WCI  26
A. F. ACADEMY  FAIR      27  25  91 CALM      29.81R
SCHRIEVER AFB  FAIR      30  25  81 NW8       29.83R WCI  23
ELLICOTT       NOT AVBL
FALCON         FAIR      26  24  91 NW7       29.82R WCI  18
FORT CARSON    NOT AVBL
LIMON          FAIR      28  26  92 NW17      29.80R WCI  16
MONUMENT HILL  FOG       27  25  93 W8        29.83R VSB 1/4 WCI  18
TRINIDAD       FAIR      33  30  88 W6        29.83S WCI  28
$$

COZ042>045-048>051-090-091-261300-
...NORTHEAST COLORADO...

CITY           SKY/WX    TMP DP  RH WIND       PRES   REMARKS
GREELEY ARPT   FAIR      30  26  85 W3        29.85S
AKRON          MOCLDY    30  26  85 NW14      29.80S WCI  19
BURLINGTON     NOT AVBL
WRAY           NOT AVBL
STERLING       FAIR      32  30  93 N8        29.81F WCI  25
HOLYOKE        CLOUDY    34  28  80 N14G21    29.82S WCI  24
FORT MORGAN    FAIR      27  25  91 NW5       29.83S WCI  22
$$

COZ086-089-092>099-261300-
...SOUTHEAST COLORADO...

CITY           SKY/WX    TMP DP  RH WIND       PRES   REMARKS
PUEBLO         FAIR      35  30  82 SW3       29.83R
LA JUNTA       MOCLDY    37  31  78 NE8       29.83R
LAMAR          FAIR      37  33  85 N5        29.82R
SPRINGFIELD      N/A     37  35  92 N16       29.80R
$$



USA.gov is the U.S. government's official web portal to all federal, state and local government web resources and services.